This is the latest recevied weather packets stored in our database for station/object WX1N. If no packets are shown the sender has not sent any weather packets the latest 10 day(s).
| Time | Temp. | Humidity | Pressure | Rain* | Wind** | Luminosity | Snow |
|---|---|---|---|---|---|---|---|
| 1777128003 | 9.44° C | 55% | 1016.9 hPa | 0 mm | - | - | - |
| 1777127704 | 9.44° C | 52% | 1016.9 hPa | 0 mm | - | - | - |
| 1777127404 | 9.44° C | 52% | 1016.9 hPa | 0 mm | - | - | - |
| 1777127104 | 9.44° C | 55% | 1017 hPa | 0 mm | - | - | - |
| 1777126804 | 9.44° C | 55% | 1016.9 hPa | 0 mm | - | - | - |
| 1777126503 | 9.44° C | 61% | 1017 hPa | 0 mm | - | - | - |
| 1777126204 | 8.89° C | 63% | 1017 hPa | 0 mm | - | - | - |
| 1777125903 | 8.33° C | 61% | 1017 hPa | 0 mm | - | - | - |
| 1777125604 | 8.33° C | 60% | 1017.1 hPa | 0 mm | - | - | - |
| 1777125303 | 7.78° C | 60% | 1017.2 hPa | 0 mm | - | - | - |
| 1777125004 | 7.78° C | 59% | 1017.2 hPa | 0 mm | - | - | - |
| 1777124703 | 7.78° C | 64% | 1017.3 hPa | 0 mm | - | - | - |
| 1777124404 | 7.22° C | 64% | 1017.3 hPa | 0 mm | - | - | - |
| 1777124103 | 7.22° C | 64% | 1017.4 hPa | 0 mm | - | - | - |
| 1777123804 | 6.67° C | 65% | 1017.4 hPa | 0 mm | - | - | - |
| 1777123504 | 6.67° C | 66% | 1017.5 hPa | 0 mm | - | - | - |
| 1777123204 | 6.67° C | 65% | 1017.5 hPa | 0 mm | - | - | - |
| 1777122904 | 6.11° C | 67% | 1017.6 hPa | 0 mm | - | - | - |
| 1777122603 | 6.11° C | 68% | 1017.6 hPa | 0 mm | - | - | - |
| 1777122304 | 5.56° C | 74% | 1017.6 hPa | 0 mm | - | - | - |
| 1777122004 | 5° C | 75% | 1017.7 hPa | 0 mm | - | - | - |
| 1777121703 | 5° C | 74% | 1017.7 hPa | 0 mm | - | - | - |
| 1777121404 | 4.44° C | 79% | 1017.7 hPa | 0 mm | - | - | - |
| 1777121103 | 3.89° C | 81% | 1017.8 hPa | 0 mm | - | - | - |
| 1777120804 | 3.89° C | 82% | 1017.9 hPa | 0 mm | - | - | - |
* Rain latest hour (hover to see other rain measurements)
** Current wind speed in m/s (hover to see current wind gust speed)